Weather in Adak Island

United States     51°52′11″N   176°38′27″W
temp.,
°C
wind,
m/s
gust,
m/s
humid.,
%
clouds,
%
prec.,
mm/h
press.,
hPa
HPBL,
m
16 may, sun
sun1601:00+5nnw238480 0.0 1021471
04:00+4n3383100 0.0 1021461
07:00+4ne2382100 0.0 1021461
10:00+5ne2377100 0.0 1021531
13:00+6ene2375100 0.0 1022773
16:00+6e777868 0.1 1022666
19:00+6ene678062 0.1 1021570
22:00+5ene357948 0.1 1022514
17 may, mon
mon1701:00+4ene238171 0.0 1022459
04:00+4e3381100 0.0 1021454
07:00+3ene237992 0.0 1020531
10:00+4ne127668 0.0 1020531
13:00+5e347091 0.0 1020700
16:00+6e556735 0.0 1019687
19:00+6e6767100 0.0 1017595
22:00+6ene4669100 0.0 1017491
18 may, tue
tue1801:00+5ene5881100 0.0 1017446
04:00+5ene4882100 0.0 1015460
07:00+5ne3677100 0.0 1014447
10:00+5ne3573100 0.0 1013422
13:00+7ene4664100 0.0 1012702
16:00+8ene5662100 0.0 1011805
19:00+8n5561100 0.0 1010869
22:00+6nne6974100 0.0 1010636
19 may, wed
wed1901:00+4n598536 0.0 1010642
04:00+4n7119098 0.1 1009767
07:00+4n8129198 0.1 1009961
10:00+4n8118848 0.3 1009856
13:00+5nnw11138018 0.1 1009919
16:00+5nnw12137947 0.1 1008990
19:00+5nnw12147818 0.1 1008979
22:00+4nnw111482100 0.1 1008944
20 may, thu
thu2001:00+3nnw121581100 0.1 1010908
04:00+3nnw121587100 0.1 1009835
07:00+3nw12168894 0.1 1010914
10:00+4nnw13188788 0.1 1011851
13:00+5nnw813769 0.0 1012716
16:00+6nnw1114711 0.0 1013653
19:00+6nnw1014681 0.0 1013688
22:00+5nnw813721 0.0 1015594